Location: Newark
(52.2090°N, 4.1550°W)
Time: 18:39:43
(UTC+00:00)

Altair - All Passes

Search period start: 14 October 2019 00:00
Search period end: 24 October 2019 00:00
Orbit: 1501 x 1683 km, 47.2° (Epoch: 14 October)

Date Brightness Start Highest point End Pass type
(mag) Time Alt. Az. Time Alt. Az. Time Alt. Az.
14 Oct - 10:55:41 10° SSE 11:00:36 15° SE 11:05:36 10° E daylight
14 Oct - 12:54:20 10° SSW 13:03:09 41° SSE 13:12:16 10° E daylight
14 Oct - 14:57:19 10° WSW 15:06:59 65° S 15:16:58 10° E daylight
14 Oct - 17:01:33 10° W 17:11:18 61° SSW 17:21:14 10° ESE daylight
14 Oct - 19:06:14 10° W 19:14:58 35° SW 19:23:46 10° SSE visible
14 Oct - 21:15:00 10° WSW 21:17:19 11° WSW 21:19:37 10° SW visible
15 Oct - 10:31:27 10° SSE 10:35:38 14° SE 10:39:52 10° E daylight
15 Oct - 12:29:24 10° SSW 12:38:04 39° SE 12:47:02 10° E daylight
15 Oct - 14:32:12 10° WSW 14:41:50 64° S 14:51:46 10° E daylight
15 Oct - 16:36:23 10° W 16:46:08 63° SSW 16:56:06 10° ESE daylight
15 Oct - 18:41:00 10° W 18:49:53 37° SW 18:58:50 10° SSE visible
15 Oct - 20:48:42 10° WSW 20:52:20 12° WSW 20:55:58 10° SW visible
16 Oct - 10:07:29 10° SE 10:10:40 12° ESE 10:13:54 10° ESE daylight
16 Oct - 12:04:30 10° SSW 12:13:00 37° SE 12:21:47 10° E daylight
16 Oct - 14:07:06 10° WSW 14:16:40 63° SSE 14:26:34 10° E daylight
16 Oct - 16:11:14 10° W 16:20:58 64° SSW 16:30:57 10° ESE daylight
16 Oct - 18:15:48 10° W 18:24:48 39° SW 18:33:53 10° SSE visible
16 Oct - 20:22:49 10° W 20:27:21 14° SW 20:31:54 10° SSW visible
17 Oct - 09:44:09 10° SE 09:45:43 10° ESE 09:47:18 10° ESE daylight
17 Oct - 11:39:37 10° SSW 11:47:56 35° SE 11:56:32 10° E daylight
17 Oct - 13:42:01 10° WSW 13:51:31 61° SSE 14:01:21 10° E daylight
17 Oct - 15:46:05 10° W 15:55:48 65° S 16:05:47 10° ESE daylight
17 Oct - 17:50:36 10° W 17:59:41 41° SSW 18:08:54 10° SSE visible
17 Oct - 19:57:08 10° W 20:02:21 16° SW 20:07:36 10° SSW visible
18 Oct - 11:14:45 10° SSW 11:22:53 33° SE 11:31:16 10° E daylight
18 Oct - 13:16:56 10° WSW 13:26:22 60° SSE 13:36:10 10° E daylight
18 Oct - 15:20:56 10° W 15:30:38 66° S 15:40:37 10° ESE daylight
18 Oct - 17:25:24 10° W 17:34:35 43° SSW 17:43:54 10° SE daylight
18 Oct - 19:31:34 10° W 19:37:21 17° SW 19:43:11 10° SSW visible
19 Oct - 10:49:55 10° SSW 10:57:50 31° SE 11:05:59 10° E daylight
19 Oct - 12:51:51 10° WSW 13:01:14 58° SSE 13:10:58 10° E daylight
19 Oct - 14:55:47 10° W 15:05:28 66° S 15:15:27 10° ESE daylight
19 Oct - 17:00:13 10° W 17:09:27 45° SSW 17:18:53 10° SE daylight
19 Oct - 19:06:05 10° W 19:12:20 19° SW 19:18:40 10° SSW visible
20 Oct - 10:25:07 10° SSW 10:32:48 29° SE 10:40:42 10° E daylight
20 Oct - 12:26:48 10° SW 12:36:06 57° SSE 12:45:45 10° E daylight
20 Oct - 14:30:39 10° W 14:40:18 67° S 14:50:16 10° ESE daylight
20 Oct - 16:35:02 10° W 16:44:21 47° SSW 16:53:50 10° SE daylight
20 Oct - 18:40:39 10° W 18:47:19 20° SW 18:54:04 10° S visible
21 Oct - 10:00:21 10° S 10:07:46 27° SE 10:15:24 10° E daylight
21 Oct - 12:01:45 10° SW 12:10:58 55° SSE 12:20:33 10° E daylight
21 Oct - 14:05:31 10° W 14:15:07 67° S 14:25:05 10° ESE daylight
21 Oct - 16:09:53 10° W 16:19:13 49° SSW 16:28:47 10° SE daylight
21 Oct - 18:15:16 10° W 18:22:18 22° SW 18:29:24 10° S visible
22 Oct - 09:35:37 10° S 09:42:45 25° SE 09:50:04 10° E daylight
22 Oct - 11:36:43 10° SW 11:45:51 53° SSE 11:55:20 10° E daylight
22 Oct - 13:40:23 10° W 13:49:58 67° S 13:59:54 10° ESE daylight
22 Oct - 15:44:43 10° W 15:54:06 51° SSW 16:03:43 10° SE daylight
22 Oct - 17:49:56 10° W 17:57:16 24° SW 18:04:42 10° S visible
23 Oct - 09:10:56 10° S 09:17:45 23° SE 09:24:43 10° E daylight
23 Oct - 11:11:42 10° SW 11:20:45 51° SSE 11:30:08 10° E daylight
23 Oct - 13:15:16 10° WSW 13:24:48 67° S 13:34:42 10° E daylight
23 Oct - 15:19:33 10° W 15:28:58 53° SSW 15:38:37 10° SE daylight
23 Oct - 17:24:37 10° W 17:32:14 26° SW 17:39:57 10° S visible
